Regional Weather Roundup
Issued by NWS

Home | Current Version | Previous Version | Graphics & Text | Print | Product List | Glossary On
Versions: 1 2 3 4 5 6 7 8 9 10 11 12 13 14 15 16 17 18 19 20 21 22 23 24 25 26 27 28 29 30 31 32 33 34 35 36 37 38 39 40 41 42 43 44 45 46 47 48 49 50
000
ASUS43 KDTX 301810
RWRMI
MICHIGAN HOURLY REGIONAL WEATHER ROUNDUP
NATIONAL WEATHER SERVICE DETROIT/PONTIAC MI
200 PM EDT SUN AUG 30 2015

NOTE: "FAIR" INDICATES FEW OR NO CLOUDS BELOW 12,000 FEET WITH NO
SIGNIFICANT WEATHER AND/OR OBSTRUCTION TO VISIBILITY.

MIZ047>049-052>055-059>063-066>070-074>076-081>083-301900-
SOUTHEAST LOWER MICHIGAN

CITY           SKY/WX    TMP DP  RH WIND       PRES   REMARKS
ADRIAN         PTSUNNY   79  69  71 VRB7      30.06F
6HR MIN TEMP:  66; 6HR MAX TEMP:  80; 6HR PCP:  0.01;

ALMA           CLOUDY    72  67  86 CALM      30.07S
6HR MIN TEMP:  64; 6HR MAX TEMP:  73;

ANN ARBOR      MOSUNNY   80  69  69 S7        30.05F
BAD AXE        CLOUDY    74  67  76 S8        30.06F
DETROIT CITY   MOSUNNY   80  67  64 SW8       30.05F
6HR MIN TEMP:  69; 6HR MAX TEMP:  81;

DETROIT        PTSUNNY   82  68  62 S8        30.05F
6HR MIN TEMP:  69; 6HR MAX TEMP:  82;

FLINT          PTSUNNY   80  69  69 W7        30.06F
6HR MIN TEMP:  68; 6HR MAX TEMP:  80;

GROSSE ILE     MOSUNNY   75  70  83 S8        30.05F
HILLSDALE      MOSUNNY   81  71  71 SW5       30.07F
HOWELL         CLOUDY    79  68  70 W9        30.06F
6HR MIN TEMP:  67; 6HR MAX TEMP:  79;


CITY           SKY/WX    TMP DP  RH WIND       PRES   REMARKS
JACKSON        CLOUDY    76  69  79 CALM      30.06F
6HR MIN TEMP:  66; 6HR MAX TEMP:  76;

LAMBERTVILLE   PTSUNNY   82  67  60 SW3       30.07S
6HR MIN TEMP:  69; 6HR MAX TEMP:  83;

LANSING        CLOUDY    76  67  73 W6        30.06F HAZE
6HR MIN TEMP:  67; 6HR MAX TEMP:  76;

LAPEER         NOT AVBL
MASON          CLOUDY    76  67  72 CALM      30.06F
6HR MIN TEMP:  67; 6HR MAX TEMP:  76;

MONROE         MOSUNNY   82  69  62 SW5       30.04F
6HR MIN TEMP:  69; 6HR MAX TEMP:  83;

MT. CLEMENS    MOSUNNY   79  69  70 S10       30.04F
6HR MIN TEMP:  67; 6HR MAX TEMP:  80;

PONTIAC        PTSUNNY   78  67  68 SW8       30.05F
6HR MIN TEMP:  66; 6HR MAX TEMP:  79;

PORT HOPE        N/A     69  66  90 E13       30.04F
6HR MIN TEMP:  66; 6HR MAX TEMP:  70;

PORT HURON     PTSUNNY   79  68  69 SW6       30.05F
TRI CITIES     CLOUDY    75  66  73 VRB3      30.06F
6HR MIN TEMP:  66; 6HR MAX TEMP:  76;

YPSILANTI      SUNNY     83  70  64 SW8       30.06F
6HR MIN TEMP:  71; 6HR MAX TEMP:  84; 6HR PCP: TRACE;

$$
MIZ043>046-050>051-056>058-064>065-071>073-077>080-301900-
SOUTHWEST LOWER MICHIGAN

CITY           SKY/WX    TMP DP  RH WIND       PRES   REMARKS
BATTLE CREEK   CLOUDY    76  67  73 SW7       30.07F
6HR MIN TEMP:  67; 6HR MAX TEMP:  76;

BENTON HARBOR  PTSUNNY   75  66  73 W10       30.07S
6HR MIN TEMP:  68; 6HR MAX TEMP:  75;

BIG RAPIDS     CLOUDY    73  64  74 CALM      30.06S
6HR MIN TEMP:  63; 6HR MAX TEMP:  73;

COLDWATER      CLOUDY    78  70  74 W6        30.07F
6HR MIN TEMP:  67; 6HR MAX TEMP:  79;

HOLLAND        CLOUDY    76  67  73 SW8       30.06F
6HR MIN TEMP:  68; 6HR MAX TEMP:  78;

GRAND RAPIDS   PTSUNNY   74  69  85 CALM      30.06F HAZE
6HR MIN TEMP:  66; 6HR MAX TEMP:  75;

KALAMAZOO      CLOUDY    75  67  76 VRB7      30.07S
6HR MIN TEMP:  67; 6HR MAX TEMP:  75;

MARSHALL       CLOUDY    75  69  81 CALM      30.07S
MUSKEGON       CLOUDY    74  65  73 SW3       30.06S
6HR MIN TEMP:  66; 6HR MAX TEMP:  74;

$$
MIZ016>042-301900-
NORTHERN LOWER MICHIGAN

CITY           SKY/WX    TMP DP  RH WIND       PRES   REMARKS
ALPENA         PTSUNNY   76  61  59 MISG      30.04F
6HR MIN TEMP:  54; 6HR MAX TEMP:  77;

BEAVER ISLAND  PTSUNNY   70  62  75 SW13      30.04F
6HR MIN TEMP:  62; 6HR MAX TEMP:  71;

BELLAIRE       PTSUNNY   75  61  62 S6        30.04F
6HR MIN TEMP:  57; 6HR MAX TEMP:  75;

CADILLAC       CLOUDY    75  63  67 S5        30.06F
CHARLEVOIX     MOSUNNY   73  61  65 S6        30.07S
6HR MIN TEMP:  57; 6HR MAX TEMP:  74;

FRANKFORT      CLOUDY    71  63  76 W9        30.06F
GAYLORD        MOSUNNY   74  60  61 SW8       30.06F
6HR MIN TEMP:  54; 6HR MAX TEMP:  75;

GRAYLING       MOSUNNY   75  61  61 SW9       30.07F
6HR MIN TEMP:  52; 6HR MAX TEMP:  76;

HARBOR SPRINGS SUNNY     72  62  70 W5        30.04F
HOUGHTON LAKE  CLOUDY    73  62  68 CALM      30.07F
6HR MIN TEMP:  56; 6HR MAX TEMP:  73;

MANISTEE       CLOUDY    70  61  73 W5        30.07S
OSCODA         PTSUNNY   73  64  71 E6        30.05S
6HR MIN TEMP:  57; 6HR MAX TEMP:  75;

PELLSTON       MOSUNNY   75  60  59 S9        30.03F
6HR MIN TEMP:  52; 6HR MAX TEMP:  75;

TRAVERSE CITY  PTSUNNY   77  62  59 S7        30.03F
6HR MIN TEMP:  58; 6HR MAX TEMP:  77;

$$
MIZ007>008-015-301900-
EASTERN UPPER MICHIGAN

CITY           SKY/WX    TMP DP  RH WIND       PRES   REMARKS
KINROSS        MOSUNNY   75  63  64 S8G16     30.01F
6HR MIN TEMP:  61; 6HR MAX TEMP:  75;

MACKINAC ISLAN SUNNY     70  59  69 W9        30.03F
NEWBERRY       SUNNY     75  61  61 S17G23    30.00F
6HR MIN TEMP:  60; 6HR MAX TEMP:  76;

S. S. MARIE    PTSUNNY   75  62  64 W9        30.00F
6HR MIN TEMP:  60; 6HR MAX TEMP:  76;

$$
MIZ004>006-011>014-085-301900-
CENTRAL UPPER MICHIGAN

CITY           SKY/WX    TMP DP  RH WIND       PRES   REMARKS
MANISTIQUE     SUNNY     69  63  81 S14G20    30.02F
6HR MIN TEMP:  61; 6HR MAX TEMP:  70;

ESCANABA       SUNNY     70  61  73 S12       30.00F
6HR MIN TEMP:  55; 6HR MAX TEMP:  70;

MENOMINEE      MOSUNNY   72  61  68 SW9       30.02F
6HR MIN TEMP:  54; 6HR MAX TEMP:  72;

SAWYER-GWINN   SUNNY     77  57  50 SW17G23   29.98F
$$
MIZ001>003-009>011-084-301900-
WESTERN UPPER MICHIGAN

CITY           SKY/WX    TMP DP  RH WIND       PRES   REMARKS
IRON MOUNTAIN  SUNNY     78  61  55 SW9       29.99F
6HR MIN TEMP:  60; 6HR MAX TEMP:  78;

HOUGHTON       MOSUNNY   78  61  55 SW9       29.91F
6HR MIN TEMP:  60; 6HR MAX TEMP:  78;

IRONWOOD       SUNNY     77  63  61 S13       29.91F
6HR MIN TEMP:  63; 6HR MAX TEMP:  77;

$$

ABBREVIATIONS USED IN REMARKS
   TC - TEMPERATURE IN CELSIUS
  WCI - WIND CHILL INDEX
   HX - HEAT INDEX
  VSB - VISIBILITY



USA.gov is the U.S. government's official web portal to all federal, state and local government web resources and services.